Location: Unspecified
(0.0000°N, 0.0000°E)
Time: 14:43:54
(UTC+00:00)

Tiros 1 despin weight - All Passes

Search period start: 21 February 2019 00:00
Search period end: 03 March 2019 00:00
Orbit: 594 x 643 km, 48.2° (Epoch: 20 February)

Date Brightness Start Highest point End Pass type
(mag) Time Alt. Az. Time Alt. Az. Time Alt. Az.
21 Feb - 05:46:41 10° N 05:50:14 22° NE 05:53:44 10° E visible
21 Feb - 07:27:43 10° WNW 07:31:38 28° SW 07:35:30 10° S daylight
21 Feb - 17:54:21 10° SSW 17:58:25 34° SE 18:02:30 10° ENE daylight
21 Feb - 19:36:52 10° W 19:39:49 17° NW 19:42:48 10° N visible
22 Feb - 06:02:20 10° NNW 06:06:53 58° NE 06:11:22 10° SE daylight
22 Feb - 07:47:27 10° WSW 07:48:19 10° SW 07:49:11 10° SW daylight
22 Feb - 18:10:33 10° SW 18:15:02 83° NW 18:19:33 10° NE daylight
23 Feb - 04:40:00 10° NNE 04:42:01 13° NE 04:44:03 10° ENE visible
23 Feb - 06:19:01 10° NW 06:23:29 49° SW 06:27:54 10° SSE daylight
23 Feb - 16:47:03 10° S 16:50:16 19° SE 16:53:30 10° E daylight
23 Feb - 18:27:45 10° WSW 18:31:39 29° NW 18:35:34 10° N visible
24 Feb - 04:54:33 10° NNW 04:58:43 32° NE 05:02:51 10° ESE visible
24 Feb - 06:36:54 10° W 06:40:07 19° SW 06:43:20 10° S daylight
24 Feb - 17:02:33 10° SSW 17:06:54 53° SE 17:11:16 10° NE daylight
24 Feb - 18:47:05 10° WNW 18:48:21 11° NW 18:49:38 10° NNW visible
25 Feb - 05:10:41 10° NW 05:15:20 89° SW 05:19:57 10° SE visible
25 Feb - 15:40:53 10° SSE 15:42:05 11° SE 15:43:17 10° ESE daylight
25 Feb - 17:19:10 10° SW 17:23:30 52° NW 17:27:52 10° NNE daylight
26 Feb - 03:47:12 10° N 03:50:32 19° NE 03:53:50 10° E visible
26 Feb - 05:27:48 10° WNW 05:31:57 32° SW 05:36:03 10° SSE visible
26 Feb - 15:54:54 10° S 15:58:46 29° SE 16:02:39 10° ENE daylight
26 Feb - 17:36:57 10° W 17:40:09 19° NW 17:43:22 10° N daylight
27 Feb - 04:02:39 10° NNW 04:07:11 50° NE 04:11:39 10° SE visible
27 Feb - 05:46:40 10° WSW 05:48:37 12° SW 05:50:33 10° SSW visible
27 Feb - 16:10:56 10° SW 16:15:21 84° SE 16:19:51 10° NE daylight
28 Feb - 02:40:57 10° NNE 02:42:18 11° NE 02:43:38 10° ENE night (unlit)
28 Feb - 04:19:12 10° NW 04:23:47 57° SW 04:28:19 10° SSE visible
28 Feb - 14:47:44 10° S 14:50:36 17° SE 14:53:28 10° E daylight
28 Feb - 16:27:59 10° WSW 16:31:58 33° NW 16:36:01 10° NNE daylight
01 Mar - 02:54:57 10° N 02:58:59 29° NE 03:03:00 10° ESE visible
01 Mar - 04:36:50 10° W 04:40:24 22° SW 04:43:57 10° S visible
01 Mar - 15:03:01 10° SSW 15:07:14 45° SE 15:11:29 10° NE daylight
01 Mar - 16:46:44 10° WNW 16:48:39 13° NW 16:50:36 10° NNW daylight
02 Mar - 03:10:56 10° NW 03:15:37 79° NE 03:20:15 10° SE visible
02 Mar - 15:19:29 10° SW 15:23:50 61° NW 15:28:13 10° NNE daylight
